Location: Mannheim
(49.4880°N, 8.4650°E)
Time: 10:19:35
(UTC+02:00)

ISS - Pass Details

Date: 26 May 2022
Orbit: 414 x 420 km, 51.6° (Epoch: 30 June)

Event Time Altitude Azimuth Distance (km) Brightness Sun altitude
Rises 22:20:54 0° 288° (WNW) 2,372 1.3 -8.5°
Reaches altitude 10° 22:23:01 10° 287° (WNW) 1,504 0.1 -8.8°
Maximum altitude 22:26:23 75° 202° (SSW) 437 -3.8 -9.1°
Enters shadow 22:29:25 12° 117° (ESE) 1,368 -1.7 -9.4°
